Havre, MT

1:05 AM MDT on August 29, 2016 (GMT -0600)
Havre City-County

Weather History for KHVR - February, 2013

Change the Weather History Date:

Monday, February 18, 2013

  Actual Average Record
Temperature  
Mean Temperature 24 °F 23 °F  
Max Temperature 31 °F 34 °F 62 °F (1930)
Min Temperature 17 °F 11 °F -36 °F (1929)
Degree Days  
Heating Degree Days 41 42  
Month to date heating degree days 680 790  
Since 1 July heating degree days 5450 5713  
Cooling Degree Days 0 0  
Month to date cooling degree days 0 0  
Year to date cooling degree days 0 0  
Moisture  
Dew Point 20 °F    
Average Humidity 77    
Maximum Humidity 84    
Minimum Humidity 69    
Precipitation  
Precipitation T in 0.01 in 0.12 in (1957)
Month to date precipitation 0.41 0.17  
Year to date precipitation 1.51 0.50  
Snow  
Snow T in 0.30 in 3.10 in (1957)
Month to date snowfall 1.3 3.7  
Since 1 July snowfall 44.2 25.8  
Snow Depth T in    
Sea Level Pressure  
Sea Level Pressure 30.13 in    
Wind  
Wind Speed 13 mph (NE)    
Max Wind Speed 30 mph    
Max Gust Speed 35 mph    
Visibility 10 miles    
Events Snow    
T = Trace of Precipitation, MM = Missing Value Source: NWS Daily Summary

Daily Weather History Graph

Daily Weather History Graph

Search for Another Location

Airport or City:

Trip Planner

Search our weather history database for the weather conditions in past years. The results will help you decide how hot, cold, wet, or windy it might be!

Date:

Astronomy

Feb. 18, 2013 Rise Set
Actual Time 7:20 AM MST 5:45 PM MST
Civil Twilight 6:48 AM MST 6:18 PM MST
Nautical Twilight 6:12 AM MST 6:54 PM MST
Astronomical Twilight 5:35 AM MST 7:30 PM MST
Moon 11:19 AM MST (2/18) 2:17 AM MST (2/18)
Length of Visible Light 11h 29m
Length of Day
10h 25m
First Quarter, 59% of the Moon is Illuminated
Feb 18
First Quarter
Feb 25
Full
Mar 4
Last Quarter
Mar 11
New
Mar 19
First Quarter

Hourly Weather History & Observations

Time (MST) Temp. Windchill Dew Point Humidity Pressure Visibility Wind Dir Wind Speed Gust Speed Precip Events Conditions
12:53 AM 28.0 °F 18.6 °F 23.0 °F 81% 30.12 in 10.0 mi WNW 10.4 mph - N/A   Overcast
1:53 AM 27.0 °F 15.6 °F 21.9 °F 81% 30.12 in 10.0 mi WNW 13.8 mph - N/A   Overcast
2:53 AM 26.1 °F 17.6 °F 21.0 °F 81% 30.15 in 10.0 mi WNW 8.1 mph - N/A   Overcast
3:53 AM 26.1 °F 17.6 °F 21.0 °F 81% 30.16 in 10.0 mi West 8.1 mph - N/A   Overcast
4:53 AM 26.6 °F 17.5 °F 21.2 °F 80% 30.08 in 10.0 mi WNW 9.2 mph - N/A   Overcast
5:53 AM 26.1 °F 17.6 °F 21.0 °F 81% 30.18 in 10.0 mi WNW 8.1 mph - N/A   Overcast
6:53 AM 26.6 °F 19.1 °F 21.2 °F 80% 30.09 in 10.0 mi NW 6.9 mph - N/A   Overcast
7:53 AM 26.1 °F 21.9 °F 21.0 °F 81% 30.19 in 10.0 mi NW 3.5 mph - N/A   Overcast
8:53 AM 26.1 °F 19.4 °F 19.9 °F 78% 30.19 in 10.0 mi WNW 5.8 mph - N/A   Overcast
9:53 AM 27.0 °F - 19.9 °F 75% 30.19 in 10.0 mi Calm Calm - N/A   Overcast
10:37 AM 28.4 °F - 19.4 °F 69% 30.11 in 10.0 mi Calm Calm - N/A   Overcast
10:53 AM 28.0 °F 24.2 °F 19.9 °F 72% 30.20 in 10.0 mi ENE 3.5 mph - N/A   Overcast
11:24 AM 26.6 °F 19.1 °F 21.2 °F 80% 30.11 in 10.0 mi ENE 6.9 mph - N/A   Overcast
11:31 AM 26.6 °F 21.2 °F 21.2 °F 80% 30.11 in 10.0 mi ENE 4.6 mph - N/A   Overcast
11:53 AM 28.0 °F 20.8 °F 21.0 °F 75% 30.20 in 10.0 mi ENE 6.9 mph - N/A   Overcast
12:43 PM 28.4 °F 21.2 °F 21.2 °F 74% 30.10 in 10.0 mi ENE 6.9 mph - N/A   Overcast
12:53 PM 28.0 °F 20.8 °F 21.0 °F 75% 30.19 in 10.0 mi ENE 6.9 mph - N/A   Overcast
1:53 PM 30.0 °F 21.7 °F 21.9 °F 72% 30.16 in 10.0 mi East 9.2 mph - N/A   Partly Cloudy
2:53 PM 30.9 °F 22.2 °F 21.9 °F 69% 30.14 in 10.0 mi East 10.4 mph - N/A   Clear
3:53 PM 30.9 °F 21.7 °F 23.0 °F 72% 30.13 in 10.0 mi East 11.5 mph - N/A   Clear
4:53 PM 28.9 °F 17.3 °F 21.0 °F 72% 30.11 in 10.0 mi East 16.1 mph - N/A   Clear
5:53 PM 26.1 °F 14.0 °F 21.0 °F 81% 30.12 in 10.0 mi East 15.0 mph - N/A   Clear
6:53 PM 24.1 °F 9.4 °F 19.0 °F 81% 30.11 in 10.0 mi East 20.7 mph 27.6 mph N/A   Clear
7:53 PM 21.0 °F 4.3 °F 17.1 °F 85% 30.10 in 10.0 mi East 24.2 mph 28.8 mph N/A   Clear
8:53 PM 21.0 °F 4.3 °F 16.0 °F 81% 30.09 in 9.0 mi East 24.2 mph - 0.00 in Snow Light Snow
9:53 PM 19.9 °F 2.2 °F 15.1 °F 81% 30.08 in 10.0 mi East 26.5 mph 32.2 mph 0.00 in   Clear
10:53 PM 18.0 °F -0.2 °F 12.9 °F 81% 30.08 in 9.0 mi East 25.3 mph 33.4 mph 0.00 in Snow Light Snow
11:53 PM 17.1 °F -1.4 °F 12.0 °F 81% 30.07 in 9.0 mi East 25.3 mph 32.2 mph 0.00 in Snow Light Snow